Voltar ao catálogo

COSMOS 374 DEB

AtivoLEO
NORAD 4698·DEBRIS·🇷🇺 Russia

Lançado Oct 23, 1970 de Baikonur Cosmodrome

Loading…

Próximas Passagens (próximas 24 horas)

TLE

AtualizadoSource: Space-Track

Época: Sep 14, 2026, 13:48 UTC

1  4698U 70089Q   26257.57551891  .00002517  00000-0  89940-3 0  9992
2  4698  63.1065 355.7008 0646973 129.5842 236.4191 13.57824271667627

Acompanhe COSMOS 374 DEB em tempo real com AllMySat

Download on the App Store